Weather reports worldwide

Advertisment
Lugo/Rozas, Spain (8008): temperature & dewpoint: 20.09.2018 17:00:00 - 26.09.2018 17:00:00 (CEST)Lugo/Rozas, Spain (8008): wind speed: 20.09.2018 17:00:00 - 26.09.2018 17:00:00 (CEST)Lugo/Rozas, Spain (8008): wind direction: 20.09.2018 17:00:00 - 26.09.2018 17:00:00 (CEST)Lugo/Rozas, Spain (8008): reduced air pressure: 20.09.2018 17:00:00 - 26.09.2018 17:00:00 (CEST)Lugo/Rozas, Spain (8008): visibility: 20.09.2018 17:00:00 - 26.09.2018 17:00:00 (CEST)Lugo/Rozas, Spain (8008): precipitation: 20.09.2018 17:00:00 - 26.09.2018 17:00:00 (CEST)
Date & Time tt [°C] td [°C] ff [km/h] ff [kn] dd ppp [hPa] vv [km] rr [mm]
26.09.2018 17:00:00 31,1 10,4 5 3 S 1020,6 20 -
26.09.2018 16:00:00 30,9 9,7 9 5 SW 1020,6 20 0,0
26.09.2018 15:00:00 29,3 9,4 11 6 WSW 1021,1 20 0,0
26.09.2018 14:00:00 25,7 13,2 4 2 N 1022,2 25 -
26.09.2018 13:00:00 21,5 12,3 4 2 E 1023,2 20 0,0
26.09.2018 12:00:00 18,3 11,6 2 1 NNW 1024,0 16 0,0
26.09.2018 11:00:00 14,1 10,5 4 2 ENE 1024,7 25 -
26.09.2018 10:00:00 10,1 8,7 2 1 WSW 1025,2 7 0,0
26.09.2018 09:00:00 6,4 5,3 2 1 SSE 1025,7 7 0,0
26.09.2018 08:00:00 6,0 4,8 2 1 SW 1025,3 2,0 -
26.09.2018 07:00:00 6,6 5,4 2 1 SSE 1024,9 8 0,0
26.09.2018 06:00:00 7,1 6,0 2 1 S 1024,8 4,3 0,0
26.09.2018 05:00:00 7,6 6,2 2 1 SSE 1024,9 7 -
26.09.2018 04:00:00 8,3 6,8 2 1 S 1025,2 6 0,0
26.09.2018 03:00:00 9,3 8,1 2 1 ENE 1025,2 6 0,0
26.09.2018 02:00:00 10,0 8,6 2 1 E 1025,1 7 -
26.09.2018 01:00:00 10,5 9,3 4 2 E 1025,2 11 0,0
26.09.2018 00:00:00 10,7 9,6 8 4 ENE 1025,3 14 0,0
25.09.2018 23:00:00 11,2 9,5 4 2 NNE 1025,2 20 -
25.09.2018 22:00:00 12,1 10,0 5 3 ENE 1024,9 20 0,0
25.09.2018 21:00:00 13,1 10,1 8 4 NE 1024,5 20 0,0
25.09.2018 20:00:00 14,8 10,2 11 6 NE 1024,0 20 -
25.09.2018 19:00:00 16,7 10,3 11 6 NE 1023,3 20 0,0
25.09.2018 18:00:00 18,6 9,9 15 8 NE 1023,0 20 0,0
25.09.2018 17:00:00 20,1 10,5 11 6 NE 1023,0 20 -
25.09.2018 16:00:00 20,6 10,1 11 6 NE 1023,0 20 0,0
25.09.2018 15:00:00 21,0 10,2 11 6 NE 1023,6 20 0,0
25.09.2018 14:00:00 20,0 9,5 11 6 NE 1024,3 25 -
25.09.2018 13:00:00 18,7 9,2 9 5 NE 1025,2 20 0,0
25.09.2018 12:00:00 16,9 8,3 8 4 NNE 1025,7 20 0,0
25.09.2018 11:00:00 14,5 7,5 11 6 NE 1026,3 25 -
25.09.2018 10:00:00 12,1 7,0 8 4 ENE 1026,5 20 0,0
25.09.2018 09:00:00 8,5 5,8 5 3 ENE 1026,9 20 0,0
25.09.2018 08:00:00 7,7 5,8 4 2 ENE 1026,8 25 -
25.09.2018 07:00:00 8,1 5,9 2 1 SE 1026,6 20 0,0
25.09.2018 06:00:00 8,7 6,3 2 1 ENE 1026,8 20 0,0
25.09.2018 05:00:00 9,3 6,9 4 2 NE 1027,1 20 -
25.09.2018 04:00:00 9,8 7,2 4 2 NE 1027,4 20 0,0
25.09.2018 03:00:00 10,6 8,0 8 4 NE 1027,2 20 0,0
25.09.2018 02:00:00 11,6 8,8 9 5 NE 1027,3 20 -
25.09.2018 01:00:00 12,3 9,3 9 5 NE 1027,5 20 0,0
25.09.2018 00:00:00 12,5 10,0 13 7 NE 1027,7 20 0,0
24.09.2018 23:00:00 12,7 10,4 13 7 NE 1027,5 20 -
24.09.2018 22:00:00 12,9 10,6 9 5 NE 1027,2 20 0,0
24.09.2018 21:00:00 13,1 10,8 9 5 NE 1026,9 20 0,0
24.09.2018 20:00:00 13,6 10,9 11 6 NE 1026,7 20 -
24.09.2018 19:00:00 14,7 11,5 11 6 NE 1026,5 20 0,0
24.09.2018 18:00:00 16,2 11,8 9 5 NE 1026,1 20 0,0
24.09.2018 17:00:00 17,5 12,6 15 8 NE 1026,3 20 -
24.09.2018 16:00:00 18,9 13,1 13 7 NE 1026,2 20 0,0
24.09.2018 15:00:00 18,7 13,1 15 8 NE 1026,7 20 0,0
24.09.2018 14:00:00 18,8 13,6 9 5 NE 1027,4 25 -
24.09.2018 13:00:00 17,8 13,3 15 8 ENE 1028,1 20 0,0
24.09.2018 12:00:00 15,8 12,9 15 8 ENE 1028,9 20 0,0
24.09.2018 11:00:00 14,5 12,7 8 4 NE 1029,3 20 -
24.09.2018 10:00:00 14,1 12,7 9 5 NE 1028,9 20 0,0
24.09.2018 09:00:00 14,5 13,2 9 5 NE 1028,4 20 0,0
24.09.2018 08:00:00 15,3 13,8 8 4 NE 1027,7 20 -
24.09.2018 07:00:00 15,2 13,9 9 5 NE 1027,6 20 0,0
24.09.2018 06:00:00 15,0 13,9 11 6 NE 1027,8 20 0,0
24.09.2018 05:00:00 15,2 13,9 11 6 NE 1027,7 20 -
24.09.2018 04:00:00 15,7 14,6 9 5 NE 1027,8 20 0,0
24.09.2018 03:00:00 16,6 15,1 13 7 ENE 1027,8 20 0,0
24.09.2018 02:00:00 17,0 15,5 9 5 ENE 1028,0 20 -
24.09.2018 01:00:00 17,6 16,1 4 2 NE 1028,0 20 0,0
24.09.2018 00:00:00 17,8 16,3 5 3 NE 1027,7 20 0,0
23.09.2018 23:00:00 18,1 16,4 5 3 NE 1027,7 20 -
23.09.2018 22:00:00 18,5 17,0 11 6 NE 1027,5 20 0,0
23.09.2018 21:00:00 19,7 17,3 9 5 NE 1026,8 20 0,0
23.09.2018 20:00:00 20,6 17,0 9 5 NE 1026,1 20 -
23.09.2018 19:00:00 22,7 17,4 15 8 ENE 1025,1 20 0,0
23.09.2018 18:00:00 25,9 18,3 11 6 NE 1023,8 20 0,0
23.09.2018 17:00:00 28,6 16,5 8 4 NE 1023,0 20 -
23.09.2018 16:00:00 28,2 16,1 9 5 NE 1023,5 17 0,0
23.09.2018 15:00:00 27,8 15,5 8 4 NNW 1023,8 19 0,0
23.09.2018 14:00:00 25,9 14,4 5 3 N 1024,7 20 -
23.09.2018 13:00:00 22,9 16,4 5 3 NNW 1025,2 20 0,0
23.09.2018 12:00:00 19,2 15,9 5 3 NNW 1025,8 20 0,0
23.09.2018 11:00:00 16,3 15,0 4 2 NNW 1026,3 20 -
23.09.2018 10:00:00 13,3 13,0 2 1 SSE 1026,6 0,6 0,0
23.09.2018 09:00:00 12,4 11,9 0 0 N 1026,1 0,3 0,0
23.09.2018 08:00:00 12,6 11,8 2 1 NNW 1025,6 3,2 -
23.09.2018 07:00:00 13,3 12,7 2 1 SE 1025,3 0,4 0,0
23.09.2018 06:00:00 13,6 13,1 0 0 N 1025,2 0,5 0,0
23.09.2018 05:00:00 13,0 12,2 2 1 S 1025,3 0,3 -
23.09.2018 04:00:00 13,5 11,7 2 1 SSE 1025,6 20 0,0
23.09.2018 03:00:00 14,5 12,5 2 1 SSE 1025,8 20 0,0
23.09.2018 02:00:00 15,3 13,3 4 2 SSE 1025,8 20 -
23.09.2018 01:00:00 16,5 14,1 2 1 SSE 1025,9 20 0,0
23.09.2018 00:00:00 17,2 14,5 2 1 S 1025,7 20 0,0
22.09.2018 23:00:00 18,3 15,5 2 1 SSW 1025,2 20 -
22.09.2018 22:00:00 20,9 16,1 2 1 S 1024,3 20 0,0
22.09.2018 21:00:00 23,4 16,0 2 1 N 1023,3 20 0,0
22.09.2018 20:00:00 25,8 16,9 2 1 N 1022,2 20 -
22.09.2018 19:00:00 28,4 17,0 4 2 NNW 1021,2 20 0,0
22.09.2018 18:00:00 30,2 16,2 8 4 W 1020,7 20 0,0
22.09.2018 17:00:00 30,4 15,3 5 3 W 1021,1 20 -
22.09.2018 16:00:00 29,3 15,1 4 2 NE 1021,4 20 0,0
22.09.2018 15:00:00 28,5 15,1 5 3 WSW 1022,0 20 0,0
22.09.2018 14:00:00 27,1 15,1 8 4 WSW 1022,5 20 -
22.09.2018 13:00:00 24,6 15,8 9 5 WSW 1023,3 20 0,0
22.09.2018 12:00:00 20,0 16,2 4 2 NW 1024,4 20 0,0
22.09.2018 11:00:00 15,2 14,1 2 1 SSE 1025,1 - -
22.09.2018 10:00:00 14,4 13,6 2 1 ENE 1024,7 20 0,0
22.09.2018 09:00:00 12,7 11,9 2 1 SE 1024,9 2,2 0,0
22.09.2018 08:00:00 13,1 12,6 2 1 SE 1024,2 1,9 -
22.09.2018 07:00:00 13,3 12,8 4 2 SSE 1024,1 0,7 0,0
22.09.2018 06:00:00 13,6 12,7 2 1 SSE 1023,6 1,2 0,0
22.09.2018 05:00:00 14,0 13,2 2 1 S 1023,5 2,6 -
22.09.2018 04:00:00 14,3 13,7 2 1 S 1023,8 0,6 0,0
22.09.2018 03:00:00 14,2 13,6 2 1 ESE 1024,0 0,2 0,0
22.09.2018 02:00:00 14,5 13,7 4 2 SSE 1024,1 1,8 -
22.09.2018 01:00:00 15,0 14,0 2 1 SW 1024,2 0,6 0,0
22.09.2018 00:00:00 15,2 14,1 0 0 N 1024,0 4,8 0,0
21.09.2018 23:00:00 15,0 13,4 2 1 NW 1024,1 20 -
21.09.2018 22:00:00 16,4 14,6 2 1 NW 1023,6 20 0,0
21.09.2018 21:00:00 17,7 15,3 2 1 NNE 1022,9 20 0,0
21.09.2018 20:00:00 19,5 16,3 5 3 NE 1021,8 20 -
21.09.2018 19:00:00 21,2 16,2 2 1 N 1021,5 20 0,0
21.09.2018 18:00:00 20,8 16,0 4 2 NE 1021,5 20 0,0
21.09.2018 17:00:00 20,5 16,1 4 2 NE 1021,8 20 -
21.09.2018 16:00:00 20,1 15,9 5 3 WSW 1021,8 19 0,0
21.09.2018 15:00:00 21,4 15,2 5 3 SSW 1021,6 20 0,0
21.09.2018 14:00:00 20,1 14,7 9 5 WSW 1021,8 25 -
21.09.2018 13:00:00 19,7 14,3 13 7 WSW 1022,1 20 0,0
21.09.2018 12:00:00 19,5 14,1 8 4 SW 1022,1 20 0,0
21.09.2018 11:00:00 18,7 13,8 8 4 SSW 1021,8 25 -
21.09.2018 10:00:00 17,7 13,4 9 5 SSW 1021,4 20 0,0
21.09.2018 09:00:00 16,7 13,0 8 4 SSW 1021,1 20 0,0
21.09.2018 08:00:00 16,3 12,8 5 3 S 1020,9 20 -
21.09.2018 07:00:00 16,2 12,9 9 5 SW 1020,6 20 0,0
21.09.2018 06:00:00 15,8 12,9 5 3 WSW 1020,7 20 0,0
21.09.2018 05:00:00 15,7 12,8 5 3 S 1020,1 20 -
21.09.2018 04:00:00 15,9 13,0 11 6 WSW 1020,3 20 0,0
21.09.2018 03:00:00 16,1 13,4 9 5 SW 1020,4 20 0,0
21.09.2018 02:00:00 16,7 13,8 11 6 SW 1020,3 20 -
21.09.2018 01:00:00 17,3 13,8 11 6 SW 1020,2 20 0,0
21.09.2018 00:00:00 17,4 13,9 9 5 SW 1020,7 20 0,0
20.09.2018 23:00:00 16,1 12,6 4 2 WSW 1020,7 20 -
20.09.2018 22:00:00 17,5 12,4 8 4 WSW 1020,1 20 0,0
20.09.2018 21:00:00 18,8 11,4 8 4 SW 1019,4 20 0,0
20.09.2018 20:00:00 21,0 11,9 8 4 WSW 1018,6 20 -
20.09.2018 19:00:00 23,7 11,1 9 5 W 1017,9 20 0,0
20.09.2018 18:00:00 26,2 7,7 15 8 W 1016,9 20 0,0
20.09.2018 17:00:00 27,1 10,3 13 7 W 1016,7 20 -

tt = temperature
td = dewpoint
ff = wind speed
dd = wind direction
ppp = reduced air pressure
vv = visibility
rr = precipitation

Next stations